N410TW SEGU-SEQM

Flight info

Callsign N410TW
Flight time 0h 55m
Altitude 21000
Route GYV4 GYV G675 PAMIS DCT QSV
Aircraft COL4/L-SDEG/C

Departure

Time 2026-04-26 02:43
Airport José Joaquín de Olmedo International Airport (SEGU)

Arrival

Time 2026-04-26 03:38
Airport Mariscal Sucre International Airport (SEQM)
Time Latitude Longitude Altitude Speed Heading
2026-04-26 02:33 -2.16065 -79.88810 18 ft 0 kts 26°
2026-04-26 02:39 -2.16063 -79.88807 18 ft 3 kts 65°
2026-04-26 02:39 -2.16083 -79.88791 18 ft 9 kts 155°
2026-04-26 02:39 -2.16133 -79.88730 18 ft 15 kts 104°
2026-04-26 02:40 -2.16048 -79.88650 18 ft 22 kts 28°
2026-04-26 02:40 -2.15894 -79.88567 17 ft 29 kts 28°
2026-04-26 02:40 -2.15701 -79.88452 17 ft 36 kts 29°
2026-04-26 02:40 -2.15464 -79.88317 16 ft 40 kts 31°
2026-04-26 02:41 -2.15280 -79.88202 16 ft 5 kts 85°
2026-04-26 02:41 -2.15280 -79.88199 16 ft 2 kts 94°
2026-04-26 02:41 -2.15310 -79.88150 16 ft 15 kts 145°
2026-04-26 02:41 -2.15437 -79.88189 15 ft 29 kts 209°
2026-04-26 02:42 -2.15771 -79.88381 15 ft 81 kts 209°
2026-04-26 02:42 -2.16360 -79.88720 101 ft 112 kts 209°
2026-04-26 02:42 -2.17092 -79.89116 308 ft 127 kts 208°
2026-04-26 02:42 -2.17885 -79.89554 576 ft 133 kts 210°
2026-04-26 02:43 -2.19531 -79.90443 1131 ft 135 kts 210°
2026-04-26 02:43 -2.20359 -79.90876 1475 ft 135 kts 210°
2026-04-26 02:43 -2.21222 -79.91224 1811 ft 136 kts 188°
2026-04-26 02:44 -2.22168 -79.91175 2147 ft 137 kts 178°
2026-04-26 02:44 -2.23055 -79.90912 2477 ft 138 kts 137°
2026-04-26 02:44 -2.23494 -79.90060 2816 ft 138 kts 113°
2026-04-26 02:44 -2.23759 -79.89163 3146 ft 137 kts 88°
2026-04-26 02:45 -2.23449 -79.88295 3472 ft 137 kts 46°
2026-04-26 02:45 -2.22748 -79.87674 3805 ft 134 kts 56°
2026-04-26 02:45 -2.22214 -79.86911 4145 ft 133 kts 53°
2026-04-26 02:45 -2.21684 -79.86154 4486 ft 131 kts 52°
2026-04-26 02:46 -2.21166 -79.85406 4825 ft 130 kts 54°
2026-04-26 02:46 -2.20660 -79.84659 5156 ft 129 kts 53°
2026-04-26 02:46 -2.19888 -79.84323 5477 ft 128 kts 352°
2026-04-26 02:46 -2.19067 -79.84648 5818 ft 126 kts 340°
2026-04-26 02:47 -2.18258 -79.84978 6160 ft 125 kts 340°
2026-04-26 02:47 -2.17464 -79.85307 6486 ft 121 kts 339°
2026-04-26 02:47 -2.16711 -79.85622 6795 ft 117 kts 339°
2026-04-26 02:47 -2.15979 -79.85927 7108 ft 112 kts 339°
2026-04-26 02:48 -2.15277 -79.86221 7402 ft 108 kts 339°
2026-04-26 02:48 -2.14574 -79.86511 7661 ft 111 kts 340°
2026-04-26 02:48 -2.13846 -79.86804 7927 ft 115 kts 339°
2026-04-26 02:48 -2.13094 -79.87105 8194 ft 118 kts 339°
2026-04-26 02:49 -2.12306 -79.87061 8455 ft 120 kts 32°
2026-04-26 02:49 -2.11644 -79.86542 8738 ft 122 kts 36°
2026-04-26 02:49 -2.10969 -79.86025 9017 ft 122 kts 36°
2026-04-26 02:49 -2.10283 -79.85516 9293 ft 123 kts 32°
2026-04-26 02:50 -2.09581 -79.85030 9576 ft 123 kts 33°
2026-04-26 02:50 -2.08886 -79.84543 9845 ft 121 kts 34°
2026-04-26 02:50 -2.08222 -79.84071 10089 ft 116 kts 34°
2026-04-26 02:50 -2.07582 -79.83619 10315 ft 109 kts 33°
2026-04-26 02:51 -2.06976 -79.83190 10516 ft 106 kts 33°
2026-04-26 02:51 -2.06361 -79.82764 10726 ft 110 kts 33°
2026-04-26 02:51 -2.05711 -79.82320 10943 ft 116 kts 33°
2026-04-26 02:51 -2.05026 -79.81858 11171 ft 121 kts 33°
2026-04-26 02:52 -2.04310 -79.81381 11404 ft 125 kts 33°
2026-04-26 02:52 -2.03574 -79.80896 11654 ft 128 kts 33°
2026-04-26 02:52 -2.02824 -79.80407 11903 ft 129 kts 33°
2026-04-26 02:52 -2.02066 -79.79917 12150 ft 130 kts 33°
2026-04-26 02:53 -2.01304 -79.79429 12399 ft 130 kts 33°
2026-04-26 02:53 -2.00543 -79.78951 12640 ft 127 kts 33°
2026-04-26 02:53 -1.99795 -79.78492 12881 ft 127 kts 33°
2026-04-26 02:53 -1.99029 -79.78020 13136 ft 132 kts 33°
2026-04-26 02:54 -1.98235 -79.77528 13394 ft 137 kts 33°
2026-04-26 02:54 -1.97414 -79.77026 13655 ft 140 kts 32°
2026-04-26 02:54 -1.96564 -79.76524 13902 ft 143 kts 32°
2026-04-26 02:54 -1.95698 -79.76016 14134 ft 145 kts 32°
2026-04-26 02:55 -1.94822 -79.75497 14374 ft 147 kts 32°
2026-04-26 02:55 -1.93942 -79.74973 14606 ft 148 kts 32°
2026-04-26 02:55 -1.93068 -79.74454 14836 ft 148 kts 32°
2026-04-26 02:55 -1.92181 -79.73929 15066 ft 148 kts 32°
2026-04-26 02:56 -1.91296 -79.73405 15299 ft 147 kts 32°
2026-04-26 02:56 -1.90426 -79.72889 15530 ft 144 kts 32°
2026-04-26 02:56 -1.89580 -79.72386 15757 ft 139 kts 32°
2026-04-26 02:56 -1.88769 -79.71907 16003 ft 132 kts 32°
2026-04-26 02:57 -1.87998 -79.71456 16220 ft 123 kts 32°
2026-04-26 02:57 -1.87287 -79.71035 16402 ft 114 kts 32°
2026-04-26 02:57 -1.86607 -79.70628 16577 ft 116 kts 32°
2026-04-26 02:57 -1.85903 -79.70204 16776 ft 121 kts 32°
2026-04-26 02:58 -1.85170 -79.69762 16982 ft 128 kts 32°
2026-04-26 02:58 -1.84385 -79.69289 17211 ft 136 kts 32°
2026-04-26 02:58 -1.83553 -79.68789 17438 ft 143 kts 32°
2026-04-26 02:58 -1.82680 -79.68264 17664 ft 150 kts 32°
2026-04-26 02:59 -1.81766 -79.67714 17889 ft 156 kts 32°
2026-04-26 02:59 -1.80818 -79.67143 18115 ft 162 kts 32°
2026-04-26 02:59 -1.79841 -79.66554 18348 ft 166 kts 32°
2026-04-26 02:59 -1.78850 -79.65959 18581 ft 167 kts 32°
2026-04-26 03:00 -1.77855 -79.65363 18799 ft 167 kts 32°
2026-04-26 03:00 -1.76856 -79.64765 19023 ft 167 kts 32°
2026-04-26 03:00 -1.75856 -79.64170 19250 ft 167 kts 32°
2026-04-26 03:00 -1.74870 -79.63584 19473 ft 166 kts 32°
2026-04-26 03:01 -1.73876 -79.62995 19699 ft 166 kts 32°
2026-04-26 03:01 -1.72890 -79.62412 19926 ft 164 kts 32°
2026-04-26 03:01 -1.71909 -79.61834 20153 ft 162 kts 32°
2026-04-26 03:01 -1.70946 -79.61268 20380 ft 159 kts 32°
2026-04-26 03:02 -1.70004 -79.60718 20604 ft 154 kts 32°
2026-04-26 03:02 -1.69096 -79.60190 20825 ft 148 kts 32°
2026-04-26 03:02 -1.68229 -79.59674 20986 ft 145 kts 33°
2026-04-26 03:02 -1.67345 -79.59141 20988 ft 152 kts 33°
2026-04-26 03:03 -1.66425 -79.58585 20997 ft 157 kts 33°
2026-04-26 03:03 -1.65437 -79.57985 21008 ft 175 kts 33°
2026-04-26 03:03 -1.64351 -79.57321 21066 ft 190 kts 33°
2026-04-26 03:03 -1.63187 -79.56607 21065 ft 202 kts 33°
2026-04-26 03:04 -1.61967 -79.55854 21062 ft 210 kts 33°
2026-04-26 03:04 -1.60705 -79.55074 21064 ft 216 kts 33°
2026-04-26 03:04 -1.59422 -79.54259 21063 ft 220 kts 34°
2026-04-26 03:04 -1.58142 -79.53437 21062 ft 223 kts 34°
2026-04-26 03:05 -1.56831 -79.52595 21060 ft 225 kts 34°
2026-04-26 03:05 -1.55509 -79.51744 21061 ft 227 kts 34°
2026-04-26 03:05 -1.54196 -79.50868 21061 ft 227 kts 36°
2026-04-26 03:05 -1.52892 -79.49967 21061 ft 228 kts 36°
2026-04-26 03:06 -1.51612 -79.49078 21056 ft 220 kts 36°
2026-04-26 03:06 -1.50351 -79.48205 21052 ft 220 kts 36°
2026-04-26 03:06 -1.49093 -79.47335 21066 ft 220 kts 36°
2026-04-26 03:06 -1.47833 -79.46465 21065 ft 220 kts 36°
2026-04-26 03:07 -1.46571 -79.45595 21064 ft 220 kts 36°
2026-04-26 03:07 -1.45310 -79.44725 21064 ft 220 kts 36°
2026-04-26 03:07 -1.44048 -79.43854 21064 ft 220 kts 36°
2026-04-26 03:07 -1.42789 -79.42985 21064 ft 220 kts 36°
2026-04-26 03:08 -1.41546 -79.42125 21118 ft 220 kts 36°
2026-04-26 03:08 -1.40295 -79.41246 21118 ft 220 kts 36°
2026-04-26 03:08 -1.39044 -79.40365 21118 ft 220 kts 36°
2026-04-26 03:08 -1.37791 -79.39485 21118 ft 220 kts 36°
2026-04-26 03:09 -1.36541 -79.38605 21121 ft 220 kts 36°
2026-04-26 03:09 -1.35291 -79.37724 21121 ft 220 kts 36°
2026-04-26 03:09 -1.34037 -79.36844 21127 ft 220 kts 36°
2026-04-26 03:09 -1.32784 -79.35966 21127 ft 220 kts 36°
2026-04-26 03:10 -1.31532 -79.35085 21124 ft 220 kts 36°
2026-04-26 03:10 -1.30282 -79.34207 21125 ft 220 kts 36°
2026-04-26 03:10 -1.29028 -79.33328 21125 ft 220 kts 36°
2026-04-26 03:10 -1.27774 -79.32448 21124 ft 220 kts 36°
2026-04-26 03:11 -1.26521 -79.31567 21127 ft 220 kts 36°
2026-04-26 03:11 -1.25282 -79.30699 21127 ft 220 kts 36°
2026-04-26 03:11 -1.24016 -79.29831 21127 ft 220 kts 34°
2026-04-26 03:11 -1.22735 -79.28991 21127 ft 220 kts 34°
2026-04-26 03:12 -1.21448 -79.28156 21126 ft 220 kts 34°
2026-04-26 03:12 -1.20159 -79.27324 21210 ft 220 kts 33°
2026-04-26 03:12 -1.18873 -79.26489 21210 ft 221 kts 34°
2026-04-26 03:12 -1.17586 -79.25655 21210 ft 221 kts 34°
2026-04-26 03:13 -1.16298 -79.24824 21209 ft 221 kts 34°
2026-04-26 03:13 -1.15008 -79.23989 21208 ft 221 kts 34°
2026-04-26 03:13 -1.13721 -79.23153 21208 ft 221 kts 34°
2026-04-26 03:13 -1.12432 -79.22322 21229 ft 220 kts 33°
2026-04-26 03:14 -1.11153 -79.21471 21224 ft 221 kts 34°
2026-04-26 03:14 -1.09881 -79.20607 21224 ft 221 kts 34°
2026-04-26 03:14 -1.08609 -79.19738 21224 ft 221 kts 34°
2026-04-26 03:14 -1.07358 -79.18882 21225 ft 221 kts 33°
2026-04-26 03:15 -1.06102 -79.17992 21223 ft 222 kts 36°
2026-04-26 03:15 -1.04858 -79.17081 21221 ft 222 kts 36°
2026-04-26 03:15 -1.03618 -79.16165 21202 ft 223 kts 36°
2026-04-26 03:15 -1.02373 -79.15247 21210 ft 222 kts 36°
2026-04-26 03:16 -1.01128 -79.14332 21210 ft 222 kts 36°
2026-04-26 03:16 -0.99883 -79.13415 21210 ft 222 kts 36°
2026-04-26 03:16 -0.98646 -79.12503 21288 ft 221 kts 36°
2026-04-26 03:16 -0.97404 -79.11590 21288 ft 221 kts 36°
2026-04-26 03:17 -0.96164 -79.10677 21288 ft 221 kts 36°
2026-04-26 03:17 -0.94923 -79.09764 21285 ft 221 kts 36°
2026-04-26 03:17 -0.93661 -79.08885 21286 ft 221 kts 33°
2026-04-26 03:17 -0.92380 -79.08039 21288 ft 221 kts 33°
2026-04-26 03:18 -0.91098 -79.07195 21289 ft 221 kts 33°
2026-04-26 03:18 -0.89813 -79.06354 21275 ft 221 kts 33°
2026-04-26 03:18 -0.88527 -79.05515 21278 ft 221 kts 33°
2026-04-26 03:18 -0.87219 -79.04703 21276 ft 221 kts 33°
2026-04-26 03:19 -0.85907 -79.03905 21274 ft 221 kts 33°
2026-04-26 03:19 -0.84598 -79.03104 21271 ft 220 kts 33°
2026-04-26 03:19 -0.83293 -79.02311 21280 ft 220 kts 33°
2026-04-26 03:19 -0.81985 -79.01522 21279 ft 220 kts 33°
2026-04-26 03:20 -0.80706 -79.00719 21271 ft 219 kts 39°
2026-04-26 03:20 -0.79673 -78.99614 21269 ft 217 kts 52°
2026-04-26 03:20 -0.78744 -78.98430 21271 ft 216 kts 53°
2026-04-26 03:20 -0.77827 -78.97239 21337 ft 216 kts 53°
2026-04-26 03:21 -0.76916 -78.96045 21335 ft 216 kts 53°
2026-04-26 03:21 -0.76000 -78.94850 21335 ft 217 kts 53°
2026-04-26 03:21 -0.75076 -78.93660 21335 ft 217 kts 51°
2026-04-26 03:21 -0.74092 -78.92523 21323 ft 217 kts 50°
2026-04-26 03:22 -0.73145 -78.91345 21323 ft 217 kts 53°
2026-04-26 03:22 -0.72240 -78.90134 21323 ft 217 kts 54°
2026-04-26 03:22 -0.71338 -78.88923 21326 ft 217 kts 53°
2026-04-26 03:22 -0.70427 -78.87717 21326 ft 218 kts 53°
2026-04-26 03:23 -0.69514 -78.86508 21325 ft 218 kts 53°
2026-04-26 03:23 -0.68601 -78.85299 21324 ft 218 kts 53°
2026-04-26 03:23 -0.67702 -78.84108 21325 ft 218 kts 53°
2026-04-26 03:23 -0.66789 -78.82898 21368 ft 218 kts 53°
2026-04-26 03:24 -0.65880 -78.81692 21367 ft 218 kts 53°
2026-04-26 03:24 -0.64970 -78.80486 21367 ft 217 kts 53°
2026-04-26 03:24 -0.64057 -78.79280 21366 ft 217 kts 53°
2026-04-26 03:24 -0.63148 -78.78074 21365 ft 216 kts 53°
2026-04-26 03:25 -0.62240 -78.76870 21367 ft 217 kts 53°
2026-04-26 03:25 -0.61329 -78.75664 21368 ft 217 kts 53°
2026-04-26 03:25 -0.60420 -78.74459 21368 ft 217 kts 53°
2026-04-26 03:25 -0.59511 -78.73255 21344 ft 218 kts 53°
2026-04-26 03:26 -0.58599 -78.72047 21340 ft 217 kts 53°
2026-04-26 03:26 -0.57701 -78.70856 21342 ft 217 kts 53°
2026-04-26 03:26 -0.56791 -78.69651 21341 ft 217 kts 53°
2026-04-26 03:26 -0.55882 -78.68446 21357 ft 218 kts 53°
2026-04-26 03:27 -0.54949 -78.67210 21127 ft 224 kts 53°
2026-04-26 03:27 -0.54012 -78.65969 20880 ft 223 kts 53°
2026-04-26 03:27 -0.53394 -78.65150 20726 ft 222 kts 53°
2026-04-26 03:27 -0.52465 -78.63919 20493 ft 222 kts 53°
2026-04-26 03:28 -0.51537 -78.62689 20266 ft 221 kts 54°
2026-04-26 03:28 -0.50609 -78.61461 20033 ft 221 kts 54°
2026-04-26 03:28 -0.49685 -78.60237 19789 ft 221 kts 53°
2026-04-26 03:28 -0.48757 -78.59006 19523 ft 222 kts 53°
2026-04-26 03:29 -0.47832 -78.57781 19253 ft 220 kts 53°
2026-04-26 03:29 -0.46914 -78.56564 18987 ft 219 kts 53°
2026-04-26 03:29 -0.45996 -78.55348 18720 ft 218 kts 53°
2026-04-26 03:29 -0.45087 -78.54144 18423 ft 217 kts 54°
2026-04-26 03:30 -0.44182 -78.52944 18088 ft 215 kts 53°
2026-04-26 03:30 -0.43283 -78.51754 17790 ft 214 kts 54°
2026-04-26 03:30 -0.42389 -78.50570 17461 ft 214 kts 54°
2026-04-26 03:30 -0.41490 -78.49378 17098 ft 216 kts 53°
2026-04-26 03:31 -0.40594 -78.48191 16743 ft 217 kts 53°
2026-04-26 03:31 -0.39686 -78.46988 16387 ft 216 kts 54°
2026-04-26 03:31 -0.38780 -78.45790 16036 ft 215 kts 53°
2026-04-26 03:31 -0.37889 -78.44608 15669 ft 211 kts 53°
2026-04-26 03:32 -0.37008 -78.43441 15278 ft 209 kts 53°
2026-04-26 03:32 -0.36133 -78.42286 14890 ft 207 kts 53°
2026-04-26 03:32 -0.35260 -78.41149 14508 ft 205 kts 53°
2026-04-26 03:32 -0.34395 -78.40022 14119 ft 204 kts 53°
2026-04-26 03:33 -0.33536 -78.38901 13695 ft 202 kts 53°
2026-04-26 03:33 -0.32696 -78.37804 13286 ft 200 kts 53°
2026-04-26 03:33 -0.31743 -78.36811 12880 ft 198 kts 34°
2026-04-26 03:33 -0.30554 -78.36138 12468 ft 196 kts 28°
2026-04-26 03:34 -0.29353 -78.35511 12049 ft 194 kts 27°
2026-04-26 03:34 -0.28146 -78.34904 11619 ft 193 kts 23°
2026-04-26 03:34 -0.26824 -78.34761 11212 ft 193 kts 354°
2026-04-26 03:34 -0.25486 -78.34923 10757 ft 195 kts 358°
2026-04-26 03:35 -0.24127 -78.34943 10316 ft 196 kts 358°
2026-04-26 03:35 -0.22766 -78.34993 9855 ft 193 kts 357°
2026-04-26 03:35 -0.21459 -78.35063 9541 ft 184 kts 357°
2026-04-26 03:35 -0.20222 -78.35111 9304 ft 173 kts 359°
2026-04-26 03:36 -0.19048 -78.35155 9063 ft 165 kts 357°
2026-04-26 03:36 -0.18021 -78.35203 8820 ft 131 kts 358°
2026-04-26 03:36 -0.17194 -78.35238 8603 ft 107 kts 358°
2026-04-26 03:36 -0.16531 -78.35267 8469 ft 89 kts 358°
2026-04-26 03:37 -0.15908 -78.35294 8327 ft 91 kts 358°
2026-04-26 03:37 -0.15281 -78.35323 8191 ft 92 kts 358°
2026-04-26 03:37 -0.14635 -78.35348 8054 ft 93 kts 356°
2026-04-26 03:37 -0.13984 -78.35378 7913 ft 92 kts 356°
2026-04-26 03:38 -0.13412 -78.35406 7884 ft 63 kts 357°
2026-04-26 03:38 -0.13019 -78.35418 7872 ft 50 kts 356°
2026-04-26 03:38 -0.12700 -78.35431 7858 ft 42 kts 354°
2026-04-26 03:38 -0.12482 -78.35515 7844 ft 29 kts 326°
2026-04-26 03:39 -0.12449 -78.35610 7842 ft 15 kts 189°
2026-04-26 03:39 -0.12541 -78.35607 7847 ft 14 kts 175°
2026-04-26 03:39 -0.12654 -78.35603 7854 ft 18 kts 176°
2026-04-26 03:39 -0.12792 -78.35597 7861 ft 22 kts 174°
2026-04-26 03:40 -0.12959 -78.35589 7866 ft 26 kts 171°
2026-04-26 03:40 -0.13148 -78.35581 7875 ft 29 kts 180°
2026-04-26 03:40 -0.13361 -78.35570 7880 ft 33 kts 174°
2026-04-26 03:40 -0.13562 -78.35580 7885 ft 23 kts 233°
2026-04-26 03:41 -0.13648 -78.35657 7888 ft 16 kts 256°
2026-04-26 03:41 -0.13719 -78.35693 7889 ft 11 kts 193°
2026-04-26 03:41 -0.13727 -78.35720 7889 ft 0 kts 268°